sat.trackr.live / text

‹ back to catalog

STARLINK-31068

NORAD 58623 · 2023-203F

PAYLOAD ACTIVE UNKNOWN

§ Identity

Operator
Country
US
Launch date
2023-12-23
Launch site
AFETR
Launch vehicle
Mass (kg)
RCS (m²)

Purposes: comms

External: N2YO · Heavens-Above · Gunter

§ Orbital elements

Epoch: 2026-05-24T22:45:28.111392Z

Period
94.27 min
Inclination
43.0030°
Eccentricity
0.0001139
Mean motion
15.27580303 rev/d
Perigee alt
482.3 km
Apogee alt
483.8 km
Semi-major
6,861.2 km
B*
6.9829e-5
RAAN
356.4708°
Arg perigee
273.7572°
Mean anomaly
86.3150°
Rev number
13,522

§ Raw data

STARLINK-310681 58623U 23203F   26144.94824203  .00001660  00000+0  69829-4 0  99932 58623  43.0030 356.4708 0001139 273.7572  86.3150 15.27580303135226

JSON: /api/v1/satellites/58623 · /tle

For live sub-satellite position, see the globe view (requires WebGL).

§ Visibility from observer

Set your observer location to see the next 7 days of passes ≥ 10°. The values pass through the URL so the page stays shareable.

No JS? Fill the form by hand. The geolocation button needs JavaScript.